Regional Weather Roundup
Issued by NWS Little Rock, AR

Home | Current Version | Previous Version | Graphics & Text | Print | Product List | Glossary On
Versions: 1 2 3 4 5 6 7 8 9 10 11 12 13 14 15 16 17 18 19 20 21 22 23 24 25 26 27 28 29 30 31 32 33 34 35 36 37 38 39 40 41 42 43 44 45 46 47 48 49 50
228
ASUS44 KLZK 300105
RWRLZK

WEATHER ROUNDUP FOR ARKANSAS
NATIONAL WEATHER SERVICE LITTLE ROCK AR
800 PM CDT FRI JUL 29 2016

NOTE: "FAIR" INDICATES FEW OR NO CLOUDS BELOW 12,000 FEET WITH NO
SIGNIFICANT WEATHER AND/OR OBSTRUCTIONS TO VISIBILITY.

ARZ001-003-010-029-300200-
NORTHWEST ARKANSAS

CITY           SKY/WX    TMP DP  RH WIND       PRES   REMARKS
FAYETTEVILLE   PTCLDY    80  75  84 CALM      29.96R HX  85
FORT SMITH     CLOUDY    85  67  54 SE6       29.92S HX  87
HARRISON       PTCLDY    75  72  90 S5        29.98R
BENTONVILLE    CLEAR     81  66  61 N3        29.99R
ROGERS         CLEAR     80  72  76 CALM      29.99R
SILOAM SPGS    CLEAR     81  64  57 CALM      29.99R
HIGHFILL       CLEAR     82  73  74 CALM      29.98R HX  87
SPRINGDALE     PTCLDY   N/A N/A N/A CALM      29.98R
$$

ARZ004-005-016-300200-
NORTH CENTRAL ARKANSAS

CITY           SKY/WX    TMP DP  RH WIND       PRES   REMARKS
BATESVILLE     CLOUDY    73  72  94 SW3       29.94S
FLIPPIN        CLOUDY    75  70  83 CALM      29.94R
MTN HOME       CLOUDY    73  72  96 CALM      29.96R
$$

ARZ040-041-300200-
WEST CENTRAL ARKANSAS

CITY           SKY/WX    TMP DP  RH WIND       PRES   REMARKS
MENA             N/A    N/A N/A N/A MISG        N/A
MOUNT IDA      CLOUDY    81  74  79 CALM      29.92S HX  86
$$

ARZ009-017-025-026-028-300200-
NORTHEAST ARKANSAS

CITY           SKY/WX    TMP DP  RH WIND       PRES   REMARKS
CORNING          N/A     73  73 100 CALM      29.92S
JONESBORO      CLOUDY    76  70  82 CALM      29.91F
NEWPORT        CLOUDY    77  73  87 CALM      29.94S
WALNUT RIDGE   CLOUDY    73  70  88 NW5       29.92S
BLYTHEVILLE    CLOUDY    74  72  93 NW5       29.92F
$$

ARZ022-023-033-042-044-300200-
CENTRAL ARKANSAS

CITY           SKY/WX    TMP DP  RH WIND       PRES   REMARKS
LITTLE ROCK    CLOUDY    78  72  81 S5        29.94R
N LITTLE ROCK    N/A     75  72  89 CALM      29.92R
JACKSONVILLE   CLOUDY    76  74  93 SE1       29.93R
SEARCY         CLOUDY    74  73  97 S6        30.09R
HOT SPRINGS    CLOUDY    82  73  74 SE8       29.96R HX  87
RUSSELLVILLE   CLEAR     76  73  91 CALM      29.93S
$$

ARZ036-300200-
EAST ARKANSAS

CITY           SKY/WX    TMP DP  RH WIND       PRES   REMARKS
WEST MEMPHIS   LGT RAIN  73  72  96 S6        29.92F
$$

ARZ050-053-066-070-073-300200-
SOUTHWEST ARKANSAS

CITY           SKY/WX    TMP DP  RH WIND       PRES   REMARKS
ARKADELPHIA    CLOUDY    85  68  56 N16G29    29.92S THUNDER HX  88
CAMDEN         PTCLDY    84  75  74 N8        29.93R HX  92
TEXARKANA      CLEAR     87  75  67 S6        29.91R HX  96
EL DORADO      CLEAR     86  75  69 S5        29.94R HX  95
DE QUEEN       CLOUDY    87  76  69 N16G25    29.92R HX  97
$$

ARZ056-057-069-300200-
SOUTHEAST ARKANSAS

CITY           SKY/WX    TMP DP  RH WIND       PRES   REMARKS
PINE BLUFF     CLOUDY    74  71  91 VRB3      29.95R
STUTTGART      CLOUDY    75  70  83 SE7       29.95R
MONTICELLO     MOCLDY    85  73  67 NW3       29.94R THUNDER HX  91

$$






USA.gov is the U.S. government's official web portal to all federal, state and local government web resources and services.